{"data":{"norad_id":48668,"intl_designator":"2021-044AG","name":"STARLINK-2738","alt_names":[],"object_type":"PAYLOAD","status":"ACTIVE","operator":null,"country":"US","launch_date":"2021-05-26","launch_site_code":"AFETR","launch_vehicle":null,"mission":null,"orbit_class":"UNKNOWN","rcs_meters":null,"size_class":null,"mass_kg":null,"dimensions":null,"purposes":["comms"],"wikipedia_slug":null,"has_3d_model":false,"image_url":null,"decayed_at":null,"tle_current":{"epoch":"2026-05-25T03:50:41.882208Z","epoch_age_seconds":68084,"freshness":"FRESH","line1":"1 48668U 21044AG  26145.16020697  .00000389  00000+0  24310-4 0  9995","line2":"2 48668  53.1599 108.2801 0001099  80.8796 279.2329 15.31703744275680","mean_motion":15.31703744,"eccentricity":0.0001099,"inclination_deg":53.1599,"raan_deg":108.2801,"arg_perigee_deg":80.8796,"mean_anomaly_deg":279.2329,"bstar":2.431e-5,"rev_number":27568,"period_min":94.012958161183,"perigee_km":469.97614422398,"apogee_km":471.48152493442,"semimajor_km":6848.8658345792,"source":"CELESTRAK","updated_at":"2026-05-25T13:38:16.758248Z"}}}